Weather Service Report


716 
ASUS44 KLZK 030005
RWRLZK

WEATHER ROUNDUP FOR ARKANSAS
NATIONAL WEATHER SERVICE LITTLE ROCK AR
700 PM CDT THU JUL 02 2015

NOTE: "FAIR" INDICATES FEW OR NO CLOUDS BELOW 12,000 FEET WITH NO
SIGNIFICANT WEATHER AND/OR OBSTRUCTIONS TO VISIBILITY.

ARZ001-003-010-029-030100-
NORTHWEST ARKANSAS
  
CITY           SKY/WX    TMP DP  RH WIND       PRES   REMARKS
FAYETTEVILLE   LGT RAIN  77  75  93 S9        29.88F                  
6HR MIN TEMP:  77; 6HR MAX TEMP:  86; 6HR PCP:  0.02;                

FORT SMITH     CLOUDY    86  68  54 SW10      29.87R HX  89           
6HR MIN TEMP:  86; 6HR MAX TEMP:  90;                                

HARRISON       CLOUDY    75  69  81 W10       29.88S THUNDER HAZE     
6HR MIN TEMP:  75; 6HR MAX TEMP:  86; 6HR PCP: TRACE;                

BENTONVILLE    CLOUDY    79  68  69 W7        29.90F                  
6HR MIN TEMP:  79; 6HR MAX TEMP:  88;                                

ROGERS         CLOUDY    76  66  71 E13       29.91R                  
6HR MIN TEMP:  76; 6HR MAX TEMP:  86; 6HR PCP: TRACE;                

SILOAM SPGS    CLOUDY    72  63  73 S5          N/A  THUNDER          
6HR MIN TEMP:  72; 6HR MAX TEMP:  90; 6HR PCP:  1.48;                

HIGHFILL       CLOUDY    77  71  82 SW7       29.88F                  
6HR MIN TEMP:  77; 6HR MAX TEMP:  89; 6HR PCP: TRACE;                

SPRINGDALE     MOSUNNY   77  72  83 W7        29.92R                  
$$

ARZ004-005-016-030100-
NORTH CENTRAL ARKANSAS
  
CITY           SKY/WX    TMP DP  RH WIND       PRES   REMARKS
BATESVILLE     PTSUNNY   84  75  74 S6        29.82S HX  92           
6HR MIN TEMP:  84; 6HR MAX TEMP:  90;                                

FLIPPIN          N/A     81  75  83 CALM      29.82S HX  86           
6HR MIN TEMP:  81; 6HR MAX TEMP:  88;                                

MTN HOME       CLOUDY    79  76  90 CALM      29.83F                  
6HR MIN TEMP:  79; 6HR MAX TEMP:  85;                                

$$

ARZ040-041-030100-
WEST CENTRAL ARKANSAS
  
CITY           SKY/WX    TMP DP  RH WIND       PRES   REMARKS
MENA           PTSUNNY   86  72  62 SW9       29.93R HX  92           
MOUNT IDA      PTSUNNY   83  70  64 VRB5      29.89S HX  87           
6HR MIN TEMP:  83; 6HR MAX TEMP:  88;                                

$$

ARZ009-017-025-026-028-030100-
NORTHEAST ARKANSAS
  
CITY           SKY/WX    TMP DP  RH WIND       PRES   REMARKS
JONESBORO      CLOUDY    85  74  69 SW13      29.82R HX  92           
6HR MIN TEMP:  80; 6HR MAX TEMP:  88;                                

NEWPORT        CLOUDY    87  74  65 W10G22    29.83R HX  95           
6HR MIN TEMP:  85; 6HR MAX TEMP:  92;                                

WALNUT RIDGE   PTSUNNY   82  75  78 CALM      29.81R HX  89           
6HR MIN TEMP:  79; 6HR MAX TEMP:  86; 6HR PCP:  0.15;                

BLYTHEVILLE    PTSUNNY   80  74  81 S7        29.83S THUNDER HX  85   
6HR MIN TEMP:  80; 6HR MAX TEMP:  86;                                

$$

ARZ022-023-033-042-044-030100-
CENTRAL ARKANSAS
  
CITY           SKY/WX    TMP DP  RH WIND       PRES   REMARKS
LITTLE ROCK    CLOUDY    87  67  51 SW13      29.86S HX  90           
6HR MIN TEMP:  87; 6HR MAX TEMP:  92;                                

N LITTLE ROCK  PTSUNNY   85  72  64 SW7       29.86S HX  90           
6HR MIN TEMP:  85; 6HR MAX TEMP:  90;                                

JACKSONVILLE   PTSUNNY   87  69  54 SW15      29.86R HX  91           
6HR MIN TEMP:  87; 6HR MAX TEMP:  92;                                

SEARCY         PTSUNNY   86  73  65 SW7       29.85R HX  93           
6HR MIN TEMP:  86; 6HR MAX TEMP:  90;                                

HOT SPRINGS    PTSUNNY   85  69  58 W9        29.90R HX  89           
6HR MIN TEMP:  85; 6HR MAX TEMP:  89;                                

RUSSELLVILLE   CLOUDY    86  69  56 SW9       29.85R HX  90           
6HR MIN TEMP:  86; 6HR MAX TEMP:  91;                                

CLINTON        FAIR      84  75  74 CALM      29.86R HX  92           
$$

ARZ036-030100-
EAST ARKANSAS
  
CITY           SKY/WX    TMP DP  RH WIND       PRES   REMARKS
WEST MEMPHIS   CLOUDY    85  72  65 SW9       29.82F HX  91           
6HR MIN TEMP:  80; 6HR MAX TEMP:  88;                                

$$

ARZ050-053-066-070-073-030100-
SOUTHWEST ARKANSAS
  
CITY           SKY/WX    TMP DP  RH WIND       PRES   REMARKS
ARKADELPHIA    FAIR      86  72  62 SW10      29.89F HX  92           
6HR MIN TEMP:  86; 6HR MAX TEMP:  92;                                

CAMDEN         PTSUNNY   86  68  54 MISG      29.90F HX  89           
TEXARKANA      PTSUNNY   87  71  58 SW13      29.91F HX  93           
6HR MIN TEMP:  87; 6HR MAX TEMP:  91; 6HR PCP: TRACE;                

EL DORADO      MOSUNNY   85  72  65 SW8       29.92F HX  91           
6HR MIN TEMP:  85; 6HR MAX TEMP:  90;                                

DE QUEEN       CLOUDY    85  72  65 SW8       29.88F HX  91           
6HR MIN TEMP:  85; 6HR MAX TEMP:  90;                                

$$

ARZ056-057-069-030100-
SOUTHEAST ARKANSAS
  
CITY           SKY/WX    TMP DP  RH WIND       PRES   REMARKS
PINE BLUFF     MOSUNNY   86  70  58 SW12      29.88F HX  90           
6HR MIN TEMP:  86; 6HR MAX TEMP:  91;                                

STUTTGART      MOSUNNY   86  68  54 MISG      29.86S HX  89           
6HR MIN TEMP:  86; 6HR MAX TEMP:  91;                                

MONTICELLO     PTSUNNY   86  71  60 SW9       29.90F HX  91           
6HR MIN TEMP:  85; 6HR MAX TEMP:  91;                                


$$



Return to Home page


Western Regional Climate Center, wrcc@dri.edu